Flag for Germany Weather past 2 weeks in Wittmund, Lower Saxony, Germany

Now
46 °F

Partly sunny.


Feels Like: 38 °F
Forecast: 37 / 43 °F
Wind: 24 mph from West

Location: Wittmundhaven

Current Time: Mar 1, 2015 at 5:08:47 PM

Latest Report: Mar 1, 2015 at 4:20 PM


Visibility: N/A

Pressure: 29.47 "Hg

Humidity: 62%

Dew point: 34 °F

Location of WittmundLocation

Historic Weather in Wittmund — Graph

°F

Wittmund temperature yesterday

Maximum temperature yesterday: 45 °F (at 3:20 PM)
Minimum temperature yesterday: 30 °F (at 3:20 AM)
Average temperature yesterday: 37 °F

Past Weeks' High & Low Weather Summary

 TemperatureHumidityPressure
High48 °F (Feb 14, 3:20 PM)100% (Feb 17, 3:20 AM)30.69 "Hg (Feb 17, 3:20 AM)
Low25 °F (Feb 17, 6:20 AM)57% (Feb 28, 4:20 PM)29.21 "Hg (Feb 23, 6:20 AM)
Average38 °F86%29.90 "Hg
* Reported Feb 14 3:20 PM — Mar 1 3:20 PM, Wittmund, Weather by CustomWeather, © 2015

Note: Actual official high and low records may vary slightly from our data, if they occured in-between our weather recording intervals... More about our weather records

Advertising

Wittmund weather history for previous 24 hours

 ConditionsComfort  
Time TempWeatherWind HumidityBarometerVisibility
3:20 PM
Sun, Mar 1
46 °FScattered clouds.25 mph66%29.45 "HgN/A
2:20 PM46 °FScattered clouds.26 mph62%29.45 "HgN/A
1:20 PM46 °FScattered clouds.21 mph71%29.45 "HgN/A
12:20 PM48 °FScattered clouds.20 mph62%29.45 "HgN/A
11:20 AM48 °FScattered clouds.22 mph71%29.42 "HgN/A
10:20 AM46 °FPartly sunny.15 mph87%29.42 "HgN/A
9:20 AM45 °FPartly sunny.17 mph93%29.39 "HgN/A
8:49 AM43 °FDrizzle. Fog.18 mph93%29.39 "Hg3 mi
8:20 AM43 °FDrizzle. Partly sunny.21 mph87%29.39 "HgN/A
7:20 AM41 °FPartly sunny.17 mph93%29.39 "Hg6 mi
6:20 AM39 °FPassing clouds.16 mph93%29.39 "Hg6 mi
5:20 AM39 °FPartly cloudy.17 mph81%29.42 "Hg6 mi
4:20 AM39 °FPassing clouds.18 mph87%29.45 "HgN/A
3:20 AM39 °FPassing clouds.18 mph81%29.50 "Hg6 mi
2:20 AM41 °FPassing clouds.17 mph70%29.53 "HgN/A
1:20 AM43 °FLight rain. Passing clouds.21 mph57%29.59 "HgN/A
12:20 AM41 °FPassing clouds.20 mph61%29.62 "HgN/A
11:20 PM
Sat, Feb 28
41 °FPassing clouds.20 mph61%29.68 "HgN/A
10:20 PM41 °FPassing clouds.20 mph61%29.71 "HgN/A
9:20 PM43 °FPassing clouds.18 mph57%29.74 "HgN/A
8:20 PM41 °FPassing clouds.16 mph61%29.80 "HgN/A
7:20 PM41 °FPassing clouds.13 mph66%29.83 "HgN/A
6:20 PM41 °FPassing clouds.12 mph70%29.86 "HgN/A
5:20 PM43 °FPartly sunny.16 mph61%29.86 "HgN/A
Weather by CustomWeather, © 2015

See weather overviewHow to use our weather pages